Location: Concepci�n
(32.5333°N, 117.1167°W)
Time: 12:08:02
(UTC+00:00)

Cosmos 2227 Rocket - Pass Details

Date: 08 May 2021
Orbit: 840 x 844 km, 71.0° (Epoch: 16 June)

Event Time Altitude Azimuth Distance (km) Brightness Sun altitude
Rises 11:57:52 0° 326° (NNW) 3,396 5.3 -11.7°
Reaches altitude 10° 12:00:35 10° 316° (NW) 2,458 4.5 -11.2°
Maximum altitude 12:05:24 30° 257° (WSW) 1,476 2.9 -10.4°
Drops below altitude 10° 12:10:11 10° 198° (SSW) 2,448 4.2 -9.5°
Sets 12:12:54 0° 188° (S) 3,379 5.0 -8.9°
